timestamp,wind_dir_avg,wind_spd_avg,wind_spd_max_dir,wind_spd_gust,battery_voltage,lat,long
2023-05-08 00:04:00+00:00,226.0,7.92,226.0,8.73,12.73,47.59359,-54.27349
2023-05-08 00:14:00+00:00,223.0,6.96,222.0,7.98,12.41,47.59359,-54.27349
2023-05-08 00:24:00+00:00,220.0,6.53,226.0,7.35,12.41,47.59359,-54.27349
2023-05-08 00:34:00+00:00,207.0,7.76,206.0,8.28,12.41,47.59359,-54.27349
2023-05-08 00:44:00+00:00,205.0,8.31,207.0,9.16,12.41,47.59359,-54.27349
2023-05-08 00:54:00+00:00,212.0,8.65,214.0,9.46,12.41,47.59359,-54.27349
2023-05-08 01:04:00+00:00,212.0,8.46,214.0,9.95,12.41,47.59359,-54.27349
2023-05-08 01:14:00+00:00,213.0,8.55,215.0,9.4,12.33,47.59359,-54.27349
2023-05-08 01:24:00+00:00,205.0,8.6,204.0,9.94,12.33,47.59359,-54.27349
2023-05-08 01:34:00+00:00,210.0,7.22,212.0,7.86,12.33,47.59359,-54.27349
2023-05-08 01:44:00+00:00,211.0,10.16,211.0,11.81,12.33,47.59359,-54.27349
2023-05-08 01:54:00+00:00,208.0,9.47,211.0,10.98,12.33,47.59359,-54.27349
2023-05-08 02:04:00+00:00,211.0,9.45,208.0,11.01,12.33,47.59359,-54.27349
2023-05-08 02:14:00+00:00,212.0,10.31,209.0,11.69,12.33,47.59359,-54.27349
2023-05-08 02:24:00+00:00,212.0,10.49,207.0,11.69,12.33,47.59359,-54.27349
2023-05-08 02:34:00+00:00,210.0,9.9,212.0,11.27,12.33,47.59359,-54.27349
2023-05-08 02:44:00+00:00,213.0,9.42,213.0,10.31,12.33,47.59359,-54.27349
2023-05-08 02:54:00+00:00,209.0,9.91,210.0,11.11,12.33,47.59359,-54.27349
2023-05-08 03:04:00+00:00,210.0,9.83,211.0,11.27,12.33,47.59359,-54.27349
2023-05-08 03:14:00+00:00,210.0,10.19,207.0,11.3,12.33,47.59359,-54.27349
2023-05-08 03:24:00+00:00,208.0,10.98,206.0,12.87,12.33,47.59359,-54.27349
2023-05-08 03:34:00+00:00,206.0,11.65,202.0,12.97,12.33,47.59359,-54.27349
2023-05-08 03:44:00+00:00,210.0,10.11,211.0,12.07,12.33,47.59359,-54.27349
2023-05-08 03:54:00+00:00,210.0,10.74,208.0,11.86,12.33,47.59359,-54.27349
2023-05-08 04:04:00+00:00,203.0,12.32,207.0,13.91,12.33,47.59359,-54.27349
2023-05-08 04:14:00+00:00,200.0,12.97,197.0,14.54,12.33,47.59359,-54.27349
2023-05-08 04:24:00+00:00,203.0,12.12,208.0,13.85,12.33,47.59359,-54.27349
2023-05-08 04:34:00+00:00,205.0,12.06,210.0,13.68,12.33,47.59359,-54.27349
2023-05-08 04:44:00+00:00,213.0,10.96,216.0,12.7,12.33,47.59359,-54.27349
2023-05-08 04:54:00+00:00,213.0,11.27,212.0,13.58,12.33,47.59359,-54.27349
2023-05-08 05:04:00+00:00,214.0,11.7,215.0,13.6,12.33,47.59359,-54.27349
2023-05-08 05:14:01+00:00,209.0,10.73,215.0,12.45,12.25,47.59359,-54.27349
2023-05-08 05:24:01+00:00,212.0,9.85,209.0,12.21,12.25,47.59359,-54.27349
2023-05-08 05:34:01+00:00,213.0,10.84,214.0,12.78,12.25,47.59359,-54.27349
2023-05-08 05:44:01+00:00,211.0,10.98,207.0,12.47,12.25,47.59359,-54.27349
2023-05-08 05:54:01+00:00,211.0,10.67,216.0,12.12,12.25,47.59359,-54.27349
2023-05-08 06:04:01+00:00,216.0,10.5,218.0,12.17,12.25,47.59359,-54.27349
2023-05-08 07:14:00+00:00,216.0,9.91,218.0,11.55,12.17,47.59359,-54.27349
2023-05-08 07:24:00+00:00,214.0,10.22,215.0,12.07,12.17,47.59359,-54.27349
2023-05-08 07:34:00+00:00,215.0,9.78,216.0,11.45,12.17,47.59359,-54.27349
2023-05-08 07:44:00+00:00,214.0,10.35,215.0,11.58,12.17,47.59359,-54.27349
2023-05-08 07:54:00+00:00,216.0,10.26,224.0,12.33,12.17,47.59359,-54.27349
2023-05-08 08:04:00+00:00,213.0,11.31,215.0,12.9,12.17,47.59359,-54.27349
2023-05-08 08:14:00+00:00,214.0,11.32,216.0,13.29,12.17,47.59359,-54.27349
2023-05-08 08:24:00+00:00,213.0,10.3,205.0,11.28,12.17,47.59359,-54.27349
2023-05-08 08:34:00+00:00,214.0,9.87,213.0,11.65,12.17,47.59359,-54.27349
2023-05-08 08:44:00+00:00,210.0,9.45,213.0,10.9,12.17,47.59359,-54.27349
2023-05-08 08:54:00+00:00,209.0,10.08,204.0,11.28,12.17,47.59359,-54.27349
2023-05-08 09:04:00+00:00,208.0,9.24,204.0,11.51,12.17,47.59359,-54.27349
2023-05-08 09:14:01+00:00,212.0,8.85,210.0,10.03,12.17,47.59359,-54.27349
2023-05-08 09:24:01+00:00,211.0,9.07,209.0,10.4,12.17,47.59359,-54.27349
2023-05-08 09:34:01+00:00,208.0,9.43,208.0,10.69,12.17,47.59359,-54.27349
2023-05-08 09:44:01+00:00,209.0,9.25,207.0,10.56,12.17,47.59359,-54.27349
2023-05-08 09:54:01+00:00,210.0,9.79,210.0,11.37,12.17,47.59359,-54.27349
2023-05-08 10:04:01+00:00,211.0,7.34,216.0,8.15,12.17,47.59359,-54.27349
2023-05-08 10:14:01+00:00,211.0,8.06,214.0,9.19,13.37,47.59359,-54.27349
2023-05-08 10:24:01+00:00,210.0,9.12,214.0,10.44,13.37,47.59359,-54.27349
2023-05-08 10:34:01+00:00,210.0,10.09,213.0,11.01,13.37,47.59359,-54.27349
2023-05-08 10:44:01+00:00,209.0,9.03,211.0,10.28,13.37,47.59359,-54.27349
2023-05-08 10:54:01+00:00,210.0,9.6,211.0,10.66,13.37,47.59359,-54.27349
2023-05-08 11:04:01+00:00,214.0,8.01,213.0,8.69,13.37,47.59359,-54.27349
2023-05-08 11:14:01+00:00,212.0,8.49,211.0,9.44,13.6,47.59359,-54.27349
2023-05-08 11:24:01+00:00,211.0,7.31,212.0,7.98,13.6,47.59359,-54.27349
2023-05-08 11:34:01+00:00,222.0,7.64,238.0,10.58,13.6,47.59359,-54.27349
2023-05-08 11:44:01+00:00,220.0,8.42,228.0,9.28,13.6,47.59359,-54.27349
2023-05-08 11:54:01+00:00,218.0,9.47,218.0,10.49,13.6,47.59359,-54.27349
2023-05-08 12:04:01+00:00,216.0,9.19,218.0,10.36,13.6,47.59359,-54.27349
2023-05-08 12:14:01+00:00,218.0,7.79,225.0,9.27,13.6,47.59359,-54.27349
2023-05-08 12:24:01+00:00,215.0,8.97,219.0,10.08,13.6,47.59359,-54.27349
2023-05-08 12:34:01+00:00,216.0,8.96,217.0,10.39,13.6,47.59359,-54.27349
2023-05-08 12:44:01+00:00,216.0,9.17,219.0,10.14,13.6,47.59359,-54.27349
2023-05-08 12:54:01+00:00,212.0,9.52,220.0,11.02,13.6,47.59359,-54.27349
2023-05-08 13:04:01+00:00,211.0,9.33,212.0,11.01,13.6,47.59359,-54.27349
2023-05-08 13:14:00+00:00,208.0,7.49,214.0,8.54,13.37,47.59359,-54.27349
2023-05-08 13:24:00+00:00,189.0,7.75,200.0,9.41,13.37,47.59359,-54.27349
2023-05-08 13:34:00+00:00,186.0,8.29,190.0,9.3,13.37,47.59359,-54.27349
2023-05-08 13:44:00+00:00,202.0,9.32,203.0,10.49,13.37,47.59359,-54.27349
2023-05-08 13:54:00+00:00,209.0,9.04,211.0,9.77,13.37,47.59359,-54.27349
2023-05-08 14:04:00+00:00,210.0,8.85,206.0,10.18,13.37,47.59359,-54.27349
2023-05-08 14:14:00+00:00,212.0,10.54,214.0,11.6,13.05,47.59359,-54.27349
2023-05-08 14:24:00+00:00,209.0,10.76,214.0,11.9,13.05,47.59359,-54.27349
2023-05-08 14:34:00+00:00,204.0,9.23,200.0,10.56,13.05,47.59359,-54.27349
2023-05-08 14:44:00+00:00,202.0,8.87,206.0,10.46,13.05,47.59359,-54.27349
2023-05-08 14:54:00+00:00,201.0,9.15,202.0,10.47,13.05,47.59359,-54.27349
2023-05-08 15:04:00+00:00,198.0,8.6,200.0,9.39,13.05,47.59359,-54.27349
2023-05-08 15:14:00+00:00,200.0,8.08,200.0,8.86,13.53,47.59359,-54.27349
2023-05-08 15:24:00+00:00,199.0,8.15,200.0,8.7,13.53,47.59359,-54.27349
2023-05-08 15:34:00+00:00,199.0,8.56,196.0,9.58,13.53,47.59359,-54.27349
2023-05-08 15:44:00+00:00,209.0,8.15,203.0,9.06,13.53,47.59359,-54.27349
2023-05-08 15:54:00+00:00,207.0,7.79,209.0,8.62,13.53,47.59359,-54.27349
2023-05-08 16:04:00+00:00,203.0,7.34,207.0,8.08,13.53,47.59359,-54.27349
2023-05-08 16:14:01+00:00,207.0,6.55,210.0,7.38,13.68,47.59359,-54.27349
2023-05-08 16:24:01+00:00,207.0,6.77,204.0,7.93,13.68,47.59359,-54.27349
2023-05-08 16:34:01+00:00,214.0,7.22,216.0,8.13,13.68,47.59359,-54.27349
2023-05-08 16:44:01+00:00,214.0,7.72,215.0,9.25,13.68,47.59359,-54.27349
2023-05-08 16:54:01+00:00,214.0,8.36,213.0,9.42,13.68,47.59359,-54.27349
2023-05-08 17:04:01+00:00,209.0,6.03,209.0,6.89,13.68,47.59359,-54.27349
2023-05-08 17:14:01+00:00,206.0,7.89,205.0,8.89,13.68,47.59359,-54.27349
2023-05-08 17:24:01+00:00,204.0,9.38,203.0,10.94,13.68,47.59359,-54.27349
2023-05-08 17:34:01+00:00,209.0,8.91,208.0,9.88,13.68,47.59359,-54.27349
2023-05-08 17:44:01+00:00,216.0,7.94,213.0,9.28,13.68,47.59359,-54.27349
2023-05-08 17:54:01+00:00,214.0,8.88,213.0,10.38,13.68,47.59359,-54.27349
2023-05-08 18:04:01+00:00,219.0,7.98,219.0,9.69,13.68,47.59359,-54.27349
2023-05-08 18:14:00+00:00,214.0,6.91,212.0,8.12,13.68,47.59359,-54.27349
2023-05-08 18:24:00+00:00,209.0,8.42,208.0,9.18,13.68,47.59359,-54.27349
2023-05-08 18:34:00+00:00,214.0,9.53,212.0,10.68,13.68,47.59359,-54.27349
2023-05-08 18:44:00+00:00,211.0,10.45,208.0,11.84,13.68,47.59359,-54.27349
2023-05-08 18:54:00+00:00,206.0,9.51,211.0,11.02,13.68,47.59359,-54.27349
2023-05-08 19:04:00+00:00,211.0,9.96,210.0,11.08,13.68,47.59359,-54.27349
2023-05-08 19:14:00+00:00,210.0,9.22,209.0,10.09,13.53,47.59359,-54.27349
2023-05-08 19:24:00+00:00,212.0,8.72,216.0,9.96,13.53,47.59359,-54.27349
2023-05-08 19:34:00+00:00,205.0,10.23,206.0,11.4,13.53,47.59359,-54.27349
2023-05-08 19:44:00+00:00,201.0,10.64,208.0,12.06,13.53,47.59359,-54.27349
2023-05-08 19:54:00+00:00,203.0,10.35,205.0,11.9,13.53,47.59359,-54.27349
2023-05-08 20:04:00+00:00,204.0,9.73,207.0,11.52,13.53,47.59359,-54.27349
2023-05-08 20:14:00+00:00,203.0,10.72,208.0,11.69,13.6,47.59359,-54.27349
2023-05-08 20:24:00+00:00,203.0,10.66,207.0,11.65,13.6,47.59359,-54.27349
2023-05-08 20:34:00+00:00,204.0,10.6,206.0,11.74,13.6,47.59359,-54.27349
2023-05-08 20:44:00+00:00,202.0,10.37,203.0,12.42,13.6,47.59359,-54.27349
2023-05-08 20:54:00+00:00,202.0,11.24,203.0,12.24,13.6,47.59359,-54.27349
2023-05-08 21:04:00+00:00,205.0,12.59,207.0,14.65,13.6,47.59359,-54.27349
2023-05-08 21:14:01+00:00,208.0,11.77,206.0,12.78,13.44,47.59359,-54.27349
2023-05-08 21:24:01+00:00,208.0,11.07,209.0,11.74,13.44,47.59359,-54.27349
2023-05-08 21:34:01+00:00,204.0,11.63,201.0,13.68,13.44,47.59359,-54.27349
2023-05-08 21:44:01+00:00,199.0,12.73,198.0,14.6,13.44,47.59359,-54.27349
2023-05-08 21:54:01+00:00,200.0,11.84,199.0,14.05,13.44,47.59359,-54.27349
2023-05-08 22:04:01+00:00,202.0,12.11,206.0,13.57,13.44,47.59359,-54.27349
2023-05-08 22:14:01+00:00,198.0,12.36,200.0,13.99,12.89,47.59359,-54.27349
2023-05-08 22:24:01+00:00,194.0,11.98,197.0,13.25,12.89,47.59359,-54.27349
2023-05-08 22:34:01+00:00,192.0,11.65,193.0,13.72,12.89,47.59359,-54.27349
2023-05-08 22:44:01+00:00,194.0,11.88,199.0,13.15,12.89,47.59359,-54.27349
2023-05-08 22:54:01+00:00,194.0,10.44,196.0,11.62,12.89,47.59359,-54.27349
2023-05-08 23:04:01+00:00,200.0,9.62,200.0,10.34,12.89,47.59359,-54.27349
2023-05-08 23:14:00+00:00,204.0,9.16,199.0,10.08,12.41,47.59359,-54.27349
2023-05-08 23:24:00+00:00,206.0,8.69,210.0,9.69,12.41,47.59359,-54.27349
2023-05-08 23:34:00+00:00,216.0,8.55,214.0,9.46,12.41,47.59359,-54.27349
2023-05-08 23:44:00+00:00,217.0,6.9,219.0,7.38,12.41,47.59359,-54.27349
2023-05-08 23:54:00+00:00,219.0,6.59,215.0,7.23,12.41,47.59359,-54.27349
